Regional Weather Roundup
Issued by NWS

Home | Current Version | Previous Version | Text Only | Print | Product List | Glossary Off
Versions: 1 2 3 4 5 6 7 8 9 10 11 12 13 14 15 16 17 18 19 20 21 22 23 24 25 26 27 28 29 30 31 32 33 34 35 36 37 38 39 40 41 42 43 44 45 46 47 48 49 50

000
ASUS43 KMPX 252310
RWRMN
WEATHER ROUNDUP FOR MINNESOTA
NATIONAL WEATHER SERVICE TWIN CITIES/CHANHASSEN MN
600 PM CDT THU MAY 25 2017


NOTE: "FAIR" INDICATES FEW OR NO CLOUDS BELOW 12,000 FEET WITH NO
SIGNIFICANT WEATHER AND/OR OBSTRUCTIONS TO VISIBILITY. N/A MEANS
CURRENT SKY AND/OR WEATHER CONDITIONS ARE NOT AVAILABLE.

MNZ060>063-068>070-260000-
   Twin Cities Metro

CITY           SKY/WX    TMP DP  RH WIND       PRES   REMARKS
TWIN CITIES    MOSUNNY   71  49  45 S13       29.64R
ST PAUL        MOSUNNY   69  53  56 VRB7      29.65R
CRYSTAL        PTSUNNY   70  48  45 SE9       29.63R
BLAINE         MOSUNNY   72  52  49 SE12      29.64S
LAKEVILLE      MOSUNNY   70  52  52 S9G16     29.64R
EDEN PRAIRIE   MOSUNNY   71  50  47 S8        29.63R
SOUTH ST PAUL  MOSUNNY   70  49  47 SE9       29.64R
LAKE ELMO      FAIR      68  52  56 SE12G18   29.66R
$$
MNZ001>005-007-008-013>017-022>024-027-028-260000-
   Northwest Minnesota

CITY           SKY/WX    TMP DP  RH WIND       PRES   REMARKS
BEMIDJI        CLOUDY    64  46  53 SE14G20   29.60S
HALLOCK        CLOUDY    66  45  45 S24G30    29.50S
ROSEAU         CLOUDY    66  48  52 SE18      29.56R
WARROAD        MOSUNNY   66  48  52 S15       29.58R
THIEF RVR FALL CLOUDY    64  46  52 S15       29.56R
CROOKSTON      CLOUDY    64  46  52 S16G22    29.52S
FOSSTON        CLOUDY    63  46  55 SE12      29.57R
DETROIT LAKES  CLOUDY    63  48  59 SE13      29.57R
MOORHEAD       CLOUDY    66  48  52 S22       29.52S
PARK RAPIDS    LGT RAIN  65  44  46 SE16      29.59S
MAHNOMEN       CLOUDY    64  47  54 SE12G17   29.55S
$$
MNZ006-009>011-018-025>026-260000-
   North Central Minnesota

CITY           SKY/WX    TMP DP  RH WIND       PRES   REMARKS
BAUDETTE       CLOUDY    66  45  46 S16       29.59S
FLAG ISLAND    CLOUDY    59  50  72 S13       29.56S
INTL FALLS     MOSUNNY   67  44  43 S10       29.62S
WASKISH        CLOUDY    64  48  55 S6        29.61R
BIG FORK       PTSUNNY   64  46  52 SE6G16    29.64R
LONGVILLE      CLOUDY    63  46  55 SE9       29.63S
GRAND RAPIDS   CLOUDY    65  47  52 SE10      29.65S
CRANE LAKE     MOSUNNY   66  43  42 S7G17     29.67R
ORR            CLOUDY    66  43  42 SE9G17    29.63S
COOK           MOSUNNY   66  45  45 SE9G16    29.66S
WALKER         CLOUDY    61  48  62 SE7       29.61S
$$
MNZ012-019>021-037-260000-
   Northeast Minnesota

CITY           SKY/WX    TMP DP  RH WIND       PRES   REMARKS
DULUTH         MOSUNNY   61  46  57 E14       29.67S
ELY            SUNNY     66  43  42 S10G17    29.68S
HIBBING        PTSUNNY   63  45  51 SE13      29.65S
EVELETH        SUNNY     66  37  35 S14       29.67S
DULUTH HARBOR  MOSUNNY   48  45  87 NE9       29.70S
TWO HARBORS    SUNNY     63  48  59 E14G23    29.69R
SILVER BAY     SUNNY     59  46  63 E14       29.70S
GRAND MARAIS     N/A     53  44  71 E10       29.72S
G MARAIS ARPRT SUNNY     61  39  44 E8        29.74S
$$
MNZ029>031-032-039>041-046>048-054>057-064-260000-
   West Central Minnesota

CITY           SKY/WX    TMP DP  RH WIND       PRES   REMARKS
FERGUS FALLS   CLOUDY    64  50  59 SE15G22   29.53S
WHEATON        LGT RAIN  64  55  72 SE10      29.53S
MORRIS         PTSUNNY   66  54  63 S18G24    29.54R
ALEXANDRIA     CLOUDY    65  49  56 SE15G22   29.59S
ELBOW LAKE     CLOUDY    65  51  60 SE16G25   29.55S
WADENA         CLOUDY    63  46  55 SE12      29.59S
GLENWOOD       RAIN      63  52  67 SE13G20   29.60R
APPLETON       CLOUDY    66  52  59 SE9       29.55S
BENSON         CLOUDY    66  52  59 S12G20    29.59R
ORTONVILLE     LGT RAIN  64  54  68 SE8       29.52F
MADISON        CLOUDY    70  57  64 SE10      29.54F
WILLMAR        LGT RAIN  68  52  56 S13       29.61R
$$
MNZ033>034-036-042>043-049>051-058-059-260000-
   Central Minnesota

CITY           SKY/WX    TMP DP  RH WIND       PRES   REMARKS
ST CLOUD       MOSUNNY   67  50  54 S14       29.63R
SAUK CENTRE    CLOUDY    64  49  57 SE13G18   29.61S
PAYNESVILLE    CLOUDY    66  48  52 SE12      29.62S
AITKIN         CLOUDY    64  48  55 S9        29.63S
PINE RIVER     CLOUDY    64  50  59 SE10      29.66S
BRAINERD       CLOUDY    66  48  52 S14G21    29.64R
STAPLES        CLOUDY    63  45  51 SE9       29.61R
LONG PRAIRIE   CLOUDY    63  46  55 E13       29.61S
LITTLE FALLS   CLOUDY    64  45  48 SE10      29.62S
LITCHFIELD     CLOUDY    68  52  56 SE7       29.62F
BUFFALO        MOSUNNY   68  48  48 SE7       29.65R
MAPLE LAKE     MOSUNNY   69  53  56 S7        29.65R
HUTCHINSON     CLOUDY    68  51  54 SE13      29.63S
$$
MNZ037-044-045-052-053-260000-
   East Central Minnesota

CITY           SKY/WX    TMP DP  RH WIND       PRES   REMARKS
PRINCETON      MOSUNNY   72  48  43 SE9       29.64R
MORA           CLOUDY    66  46  48 S8        29.66R
CAMBRIDGE      CLOUDY    72  52  49 SE10      29.63R
RUSH CITY      CLOUDY    68  50  52 S7        29.65R
MOOSE LAKE     PTSUNNY   61  45  55 E6        29.65R
HINCKLEY       MOCLDY    68  50  52 SE6       29.64S
CLOQUET        PTSUNNY   55  43  62 E10G17    29.68S
MCGREGOR       CLOUDY    66  50  55 SE9       29.64S
$$
MNZ071>073-080-081-089-090-097-098-260000-
   Southwest Minnesota

CITY           SKY/WX    TMP DP  RH WIND       PRES   REMARKS
MONTEVIDEO     CLOUDY    66  52  59 S9G17     29.56S
CANBY          CLOUDY    67  52  58 CALM      29.56F
MARSHALL       LGT RAIN  68  51  54 SW10      29.58R
REDWOOD FALLS  CLOUDY    69  49  48 SE17      29.59R
OLIVIA         CLOUDY    70  50  49 S14       29.60R
PIPESTONE      CLOUDY    64  48  55 S6        29.58S
WINDOM         CLOUDY    70  50  49 SE9       29.60R
WORTHINGTON    LGT RAIN  66  53  63 SW7       29.60R
JACKSON        CLOUDY    68  50  52 SE9       29.61R
TRACY          CLOUDY    66  55  67 SW6       29.60R
SLAYTON        RAIN      64  52  64 S6        29.60S
$$
MNZ065>067-074>077-082>085-091>093-260000-
   South Central Minnesota

CITY           SKY/WX    TMP DP  RH WIND       PRES   REMARKS
MANKATO        MOSUNNY   69  51  52 SE12      29.63R
NEW ULM        MOSUNNY   68  48  49 SE8       29.61S
ST JAMES       PTSUNNY   70  50  49 SE13      29.62R
FAIRMONT       CLOUDY    69  49  48 SE10      29.61S
GLENCOE        PTSUNNY   71  54  54 SE10      29.63S
FARIBAULT      SUNNY     70  50  49 S9        29.65R
OWATONNA       SUNNY     70  48  46 S10G16    29.64S
WASECA         SUNNY     68  48  49 S9        29.65R
ALBERT LEA     CLOUDY    72  50  46 S10       29.64R
$$
MNZ078>079-086>088-094>096-260000-
   Southeast Minnesota

CITY           SKY/WX    TMP DP  RH WIND       PRES   REMARKS
ROCHESTER      CLOUDY    66  53  63 SE12      29.66S
RED WING       PTSUNNY   72  48  43 S7        29.63S
STANTON        SUNNY     71  51  49 SE9G21    29.63R
DODGE CENTER   MOSUNNY   70  48  46 S16       29.65S
WINONA         CLOUDY    70  52  52 S5        29.66F
AUSTIN         SUNNY     68  48  49 SE7       29.64S
PRESTON        MOSUNNY   68  49  51 SE10      29.67S
$$
ABBREVIATIONS USED IN REMARKS
   TC - TEMPERATURES IN CELSIUS
  WCI - WIND CHILL INDEX
   HX - HEAT INDEX
  VSB - VISIBILITY
$$



USA.gov is the U.S. government's official web portal to all federal, state and local government web resources and services.